This is the latest recevied weather packets stored in our database for station/object KQ4PPF. If no packets are shown the sender has not sent any weather packets the latest 10 day(s).
| Time | Temp. | Humidity | Pressure | Rain* | Wind** | Luminosity | Snow |
|---|---|---|---|---|---|---|---|
| 1777310470 | 23.89° C | 61% | 1018.5 hPa | 0 mm | - | 758 W/m² | - |
| 1777310167 | 23.33° C | 60% | 1018.5 hPa | 0 mm | - | 717 W/m² | - |
| 1777309864 | 23.89° C | 60% | 1018.1 hPa | 0 mm | - | 753 W/m² | - |
| 1777309563 | 23.33° C | 63% | 1018.5 hPa | 0 mm | - | 707 W/m² | - |
| 1777309259 | 22.22° C | 64% | 1018.6 hPa | 0 mm | - | 683 W/m² | - |
| 1777308958 | 22.22° C | 64% | 1018.3 hPa | 0 mm | - | 637 W/m² | - |
| 1777308653 | 22.78° C | 63% | 1018.5 hPa | 0 mm | - | 757 W/m² | - |
| 1777308349 | 22.78° C | 62% | 1018.5 hPa | 0 mm | - | 790 W/m² | - |
| 1777308049 | 22.22° C | 63% | 1018.7 hPa | 0 mm | - | 799 W/m² | - |
| 1777307748 | 22.22° C | 65% | 1018.8 hPa | 0 mm | - | 819 W/m² | - |
| 1777307444 | 21.67° C | 65% | 1019.1 hPa | 0 mm | - | 679 W/m² | - |
| 1777307142 | 21.67° C | 64% | 1018.9 hPa | 0 mm | - | 514 W/m² | - |
| 1777306839 | 21.67° C | 65% | 1019 hPa | 0 mm | - | 543 W/m² | - |
| 1777306536 | 22.22° C | 64% | 1019.1 hPa | 0 mm | - | 662 W/m² | - |
| 1777306231 | 22.22° C | 65% | 1019.1 hPa | 0 mm | - | 809 W/m² | - |
| 1777305931 | 22.78° C | 64% | 1019.2 hPa | 0 mm | - | 209 W/m² | - |
| 1777305628 | 21.67° C | 67% | 1019.2 hPa | 0 mm | - | 172 W/m² | - |
| 1777305324 | 21.67° C | 67% | 1019.3 hPa | 0 mm | - | 815 W/m² | - |
| 1777305024 | 21.67° C | 66% | 1019.5 hPa | 0 mm | - | 818 W/m² | - |
| 1777304724 | 21.11° C | 67% | 1019.2 hPa | 0 mm | - | 782 W/m² | - |
| 1777304421 | 21.11° C | 68% | 1019.2 hPa | 0 mm | - | 757 W/m² | - |
| 1777304119 | 21.11° C | 67% | 1019.4 hPa | 0 mm | - | 706 W/m² | - |
| 1777303815 | 20.56° C | 68% | 1019.5 hPa | 0 mm | - | 701 W/m² | - |
| 1777303513 | 21.11° C | 68% | 1019.5 hPa | 0 mm | - | 708 W/m² | - |
| 1777303210 | 21.11° C | 69% | 1019.3 hPa | 0 mm | - | 727 W/m² | - |
* Rain latest hour (hover to see other rain measurements)
** Current wind speed in m/s (hover to see current wind gust speed)